sat.trackr.live / text

‹ back to catalog

STARLINK-34351

NORAD 64387 · 2025-127T

PAYLOAD ACTIVE UNKNOWN

§ Identity

Operator
Country
US
Launch date
2025-06-13
Launch site
AFETR
Launch vehicle
Mass (kg)
RCS (m²)

Purposes: comms

External: N2YO · Heavens-Above · Gunter

§ Orbital elements

Epoch: 2026-09-20T10:15:06.701760Z

Period
94.27 min
Inclination
42.9953°
Eccentricity
0.0003556
Mean motion
15.27594469 rev/d
Perigee alt
480.6 km
Apogee alt
485.4 km
Semi-major
6,861.1 km
B*
4.3827e-4
RAAN
159.6593°
Arg perigee
263.6289°
Mean anomaly
96.4157°
Rev number
7,225

§ Raw data

STARLINK-343511 64387U 25127T   26263.42716090  .00011824  00000+0  43827-3 0  99952 64387  42.9953 159.6593 0003556 263.6289  96.4157 15.27594469 72255

JSON: /api/v1/satellites/64387 · /tle

For live sub-satellite position, see the globe view (requires WebGL).

§ Visibility from observer

Set your observer location to see the next 7 days of passes ≥ 10°. The values pass through the URL so the page stays shareable.

No JS? Fill the form by hand. The geolocation button needs JavaScript.